UAL681 MYNN-KEWR

Flight info

Callsign UAL681
Flight time 2h 27m
Altitude 30000
Route MYNN INGRA G437 ELBOW JAZZI GARIC Q129 AARNN QUART PHLBO4 KEWR
Aircraft B772/H-SDE3E3FGHIRWY/LB1

Departure

Time 2026-04-23 00:50
Airport Lynden Pindling International Airport (MYNN)

Arrival

Time 2026-04-23 03:18
Airport Newark Liberty International Airport (KEWR)
Time Latitude Longitude Altitude Speed Heading
2026-04-23 00:33 25.05120 -77.46958 16 ft 0 kts 136°
2026-04-23 00:43 25.05119 -77.46957 16 ft 3 kts 140°
2026-04-23 00:44 25.05076 -77.46985 16 ft 15 kts 246°
2026-04-23 00:44 25.05065 -77.47073 16 ft 11 kts 252°
2026-04-23 00:44 25.05063 -77.47167 16 ft 14 kts 303°
2026-04-23 00:44 25.05100 -77.47213 18 ft 3 kts 314°
2026-04-23 00:45 25.05130 -77.47247 16 ft 10 kts 314°
2026-04-23 00:45 25.05162 -77.47282 16 ft 8 kts 315°
2026-04-23 00:45 25.05187 -77.47311 16 ft 2 kts 311°
2026-04-23 00:45 25.05198 -77.47326 18 ft 4 kts 307°
2026-04-23 00:46 25.05218 -77.47375 16 ft 10 kts 283°
2026-04-23 00:46 25.05220 -77.47394 17 ft 0 kts 272°
2026-04-23 00:48 25.05218 -77.47431 17 ft 9 kts 264°
2026-04-23 00:49 25.05186 -77.47517 17 ft 15 kts 233°
2026-04-23 00:49 25.05151 -77.47530 16 ft 1 kts 139°
2026-04-23 00:49 25.05150 -77.47528 16 ft 0 kts 134°
2026-04-23 00:49 25.05149 -77.47528 16 ft 4 kts 134°
2026-04-23 00:50 25.04943 -77.47294 17 ft 80 kts 134°
2026-04-23 00:50 25.04386 -77.46675 18 ft 146 kts 134°
2026-04-23 00:50 25.03565 -77.45758 290 ft 175 kts 134°
2026-04-23 00:50 25.02758 -77.44776 1028 ft 169 kts 115°
2026-04-23 00:51 25.02440 -77.43557 1734 ft 170 kts 88°
2026-04-23 00:51 25.02634 -77.42111 1799 ft 209 kts 70°
2026-04-23 00:51 25.03352 -77.40661 2331 ft 224 kts 49°
2026-04-23 00:51 25.04612 -77.39643 3168 ft 229 kts 25°
2026-04-23 00:52 25.06203 -77.39196 3801 ft 244 kts 14°
2026-04-23 00:52 25.07869 -77.38821 4599 ft 243 kts 15°
2026-04-23 00:52 25.09508 -77.38360 5442 ft 242 kts 19°
2026-04-23 00:52 25.11105 -77.37732 6169 ft 246 kts 21°
2026-04-23 00:53 25.12726 -77.37006 6736 ft 257 kts 24°
2026-04-23 00:53 25.14383 -77.36187 7239 ft 267 kts 21°
2026-04-23 00:53 25.16252 -77.35482 7154 ft 302 kts 17°
2026-04-23 00:53 25.18270 -77.34721 7766 ft 307 kts 20°
2026-04-23 00:54 25.20262 -77.33930 8802 ft 299 kts 19°
2026-04-23 00:54 25.22140 -77.33137 10120 ft 279 kts 21°
2026-04-23 00:54 25.23918 -77.32319 10881 ft 280 kts 20°
2026-04-23 00:54 25.25772 -77.31479 11188 ft 294 kts 20°
2026-04-23 00:55 25.27683 -77.30609 11676 ft 301 kts 20°
2026-04-23 00:55 25.29623 -77.29731 12179 ft 307 kts 19°
2026-04-23 00:55 25.31611 -77.28840 12759 ft 309 kts 20°
2026-04-23 00:55 25.33620 -77.27945 13325 ft 314 kts 18°
2026-04-23 00:56 25.35652 -77.27045 13896 ft 316 kts 19°
2026-04-23 00:56 25.37699 -77.26139 14392 ft 319 kts 18°
2026-04-23 00:56 25.39769 -77.25225 14888 ft 321 kts 19°
2026-04-23 00:56 25.41854 -77.24306 15405 ft 323 kts 18°
2026-04-23 00:57 25.43954 -77.23380 15892 ft 325 kts 19°
2026-04-23 00:57 25.46071 -77.22445 16373 ft 329 kts 18°
2026-04-23 00:57 25.48194 -77.21461 16851 ft 332 kts 20°
2026-04-23 00:57 25.50311 -77.20398 17349 ft 335 kts 21°
2026-04-23 00:58 25.52432 -77.19300 17861 ft 337 kts 21°
2026-04-23 00:58 25.54564 -77.18186 18350 ft 340 kts 21°
2026-04-23 00:58 25.56687 -77.17079 18761 ft 343 kts 21°
2026-04-23 00:58 25.58857 -77.15953 19175 ft 345 kts 21°
2026-04-23 00:59 25.61040 -77.14823 19597 ft 347 kts 20°
2026-04-23 00:59 25.63239 -77.13690 20012 ft 349 kts 20°
2026-04-23 00:59 25.65456 -77.12549 20423 ft 352 kts 20°
2026-04-23 00:59 25.67680 -77.11406 20841 ft 354 kts 20°
2026-04-23 01:00 25.69925 -77.10253 21260 ft 357 kts 20°
2026-04-23 01:00 25.72186 -77.09093 21671 ft 359 kts 20°
2026-04-23 01:00 25.74464 -77.07922 22061 ft 362 kts 20°
2026-04-23 01:00 25.76757 -77.06744 22444 ft 365 kts 20°
2026-04-23 01:01 25.79064 -77.05557 22852 ft 367 kts 20°
2026-04-23 01:01 25.81389 -77.04360 23248 ft 369 kts 20°
2026-04-23 01:01 25.83727 -77.03156 23641 ft 372 kts 20°
2026-04-23 01:01 25.86092 -77.01938 23971 ft 374 kts 20°
2026-04-23 01:02 25.88428 -77.00734 24307 ft 377 kts 20°
2026-04-23 01:02 25.89235 -77.00317 24420 ft 377 kts 19°
2026-04-23 01:02 25.93217 -76.98262 24953 ft 381 kts 19°
2026-04-23 01:02 25.95626 -76.97018 25270 ft 383 kts 19°
2026-04-23 01:03 25.98049 -76.95767 25605 ft 385 kts 19°
2026-04-23 01:03 26.00543 -76.94832 25755 ft 374 kts 358°
2026-04-23 01:03 26.03098 -76.94935 25899 ft 366 kts 343°
2026-04-23 01:03 26.05580 -76.95517 26231 ft 363 kts 340°
2026-04-23 01:04 26.08031 -76.96191 26638 ft 362 kts 340°
2026-04-23 01:04 26.10486 -76.96827 26992 ft 364 kts 341°
2026-04-23 01:04 26.15489 -76.97897 27604 ft 369 kts 343°
2026-04-23 01:05 26.18039 -76.98347 27908 ft 372 kts 344°
2026-04-23 01:05 26.20607 -76.98764 28236 ft 373 kts 344°
2026-04-23 01:05 26.23182 -76.99159 28546 ft 375 kts 344°
2026-04-23 01:05 26.25775 -76.99545 28858 ft 376 kts 344°
2026-04-23 01:06 26.28378 -76.99927 29169 ft 378 kts 345°
2026-04-23 01:06 26.30992 -77.00310 29425 ft 380 kts 345°
2026-04-23 01:06 26.33621 -77.00694 29738 ft 381 kts 345°
2026-04-23 01:06 26.36219 -77.01073 30034 ft 383 kts 344°
2026-04-23 01:07 26.38865 -77.01458 30281 ft 384 kts 344°
2026-04-23 01:07 26.41511 -77.01845 30523 ft 385 kts 344°
2026-04-23 01:07 26.44175 -77.02234 30766 ft 386 kts 344°
2026-04-23 01:07 26.46849 -77.02625 31004 ft 387 kts 343°
2026-04-23 01:08 26.49536 -77.03020 31125 ft 393 kts 343°
2026-04-23 01:08 26.52264 -77.03425 31191 ft 399 kts 343°
2026-04-23 01:08 26.57863 -77.04259 31238 ft 412 kts 344°
2026-04-23 01:09 26.63636 -77.05112 31213 ft 422 kts 344°
2026-04-23 01:09 26.69531 -77.05979 31215 ft 432 kts 345°
2026-04-23 01:10 26.75580 -77.06869 31214 ft 442 kts 345°
2026-04-23 01:10 26.81706 -77.07766 31203 ft 445 kts 345°
2026-04-23 01:11 26.86817 -77.08513 31198 ft 445 kts 345°
2026-04-23 01:11 26.93963 -77.09563 31209 ft 445 kts 345°
2026-04-23 01:12 27.00105 -77.10470 31204 ft 445 kts 345°
2026-04-23 01:12 27.05250 -77.11231 31205 ft 445 kts 345°
2026-04-23 01:13 27.11397 -77.12143 31205 ft 445 kts 345°
2026-04-23 01:13 27.17537 -77.13054 31207 ft 446 kts 345°
2026-04-23 01:14 27.23688 -77.13968 31208 ft 445 kts 345°
2026-04-23 01:14 27.29839 -77.14883 31206 ft 446 kts 345°
2026-04-23 01:15 27.35949 -77.15793 31211 ft 446 kts 345°
2026-04-23 01:15 27.42104 -77.16710 31208 ft 446 kts 345°
2026-04-23 01:16 27.48261 -77.17629 31238 ft 446 kts 345°
2026-04-23 01:16 27.54402 -77.18546 31216 ft 446 kts 345°
2026-04-23 01:17 27.60558 -77.19467 31212 ft 446 kts 345°
2026-04-23 01:17 27.66707 -77.20388 31212 ft 445 kts 345°
2026-04-23 01:18 27.72868 -77.21311 31219 ft 446 kts 345°
2026-04-23 01:18 27.78983 -77.22230 31237 ft 447 kts 345°
2026-04-23 01:19 27.85144 -77.23155 31229 ft 447 kts 345°
2026-04-23 01:19 27.91314 -77.24083 31217 ft 447 kts 345°
2026-04-23 01:20 27.97485 -77.25013 31224 ft 447 kts 345°
2026-04-23 01:20 28.03659 -77.25943 31224 ft 448 kts 345°
2026-04-23 01:21 28.09839 -77.26876 31229 ft 448 kts 345°
2026-04-23 01:21 28.16036 -77.27813 31229 ft 448 kts 345°
2026-04-23 01:22 28.22223 -77.28749 31227 ft 449 kts 345°
2026-04-23 01:22 28.28414 -77.29686 31228 ft 449 kts 345°
2026-04-23 01:23 28.34603 -77.30624 31227 ft 448 kts 345°
2026-04-23 01:23 28.40775 -77.31563 31206 ft 451 kts 345°
2026-04-23 01:24 28.47029 -77.32515 31241 ft 458 kts 345°
2026-04-23 01:24 28.53415 -77.33492 31249 ft 467 kts 345°
2026-04-23 01:25 28.59844 -77.34471 31234 ft 467 kts 345°
2026-04-23 01:25 28.66284 -77.35450 31247 ft 467 kts 346°
2026-04-23 01:26 28.72719 -77.36430 31236 ft 467 kts 345°
2026-04-23 01:26 28.79160 -77.37414 31240 ft 466 kts 345°
2026-04-23 01:27 28.85603 -77.38400 31234 ft 466 kts 345°
2026-04-23 01:27 28.91995 -77.39381 31238 ft 466 kts 345°
2026-04-23 01:28 28.98432 -77.40369 31243 ft 465 kts 346°
2026-04-23 01:28 29.04841 -77.41354 31239 ft 465 kts 345°
2026-04-23 01:29 29.11261 -77.42343 31238 ft 465 kts 345°
2026-04-23 01:29 29.17673 -77.43331 31236 ft 465 kts 345°
2026-04-23 01:30 29.24098 -77.44323 31259 ft 465 kts 346°
2026-04-23 01:30 29.30440 -77.45298 31238 ft 458 kts 346°
2026-04-23 01:31 29.36755 -77.46275 31236 ft 457 kts 346°
2026-04-23 01:31 29.43062 -77.47253 31238 ft 457 kts 346°
2026-04-23 01:32 29.49330 -77.48227 31238 ft 458 kts 346°
2026-04-23 01:32 29.55622 -77.49203 31239 ft 453 kts 346°
2026-04-23 01:33 29.61817 -77.50163 31236 ft 449 kts 346°
2026-04-23 01:33 29.68004 -77.51128 31235 ft 448 kts 346°
2026-04-23 01:34 29.74191 -77.52094 31234 ft 448 kts 346°
2026-04-23 01:34 29.80370 -77.53059 31235 ft 448 kts 346°
2026-04-23 01:35 29.86555 -77.54025 31237 ft 448 kts 346°
2026-04-23 01:35 29.92733 -77.54992 31230 ft 448 kts 346°
2026-04-23 01:36 29.98907 -77.55959 31232 ft 448 kts 346°
2026-04-23 01:36 30.05090 -77.56928 31233 ft 448 kts 346°
2026-04-23 01:37 30.11267 -77.57898 31240 ft 448 kts 346°
2026-04-23 01:37 30.17417 -77.58865 31231 ft 448 kts 346°
2026-04-23 01:38 30.23590 -77.59836 31229 ft 447 kts 346°
2026-04-23 01:38 30.29759 -77.60809 31236 ft 447 kts 346°
2026-04-23 01:39 30.35933 -77.61783 31234 ft 447 kts 346°
2026-04-23 01:39 30.42094 -77.62757 31244 ft 447 kts 346°
2026-04-23 01:40 30.48261 -77.63732 31235 ft 447 kts 346°
2026-04-23 01:40 30.54395 -77.64704 31236 ft 447 kts 346°
2026-04-23 01:41 30.60568 -77.65684 31236 ft 448 kts 346°
2026-04-23 01:41 30.66748 -77.66666 31246 ft 447 kts 347°
2026-04-23 01:42 30.72899 -77.67643 31239 ft 446 kts 347°
2026-04-23 01:42 30.79045 -77.68621 31231 ft 446 kts 347°
2026-04-23 01:43 30.85186 -77.69601 31232 ft 446 kts 347°
2026-04-23 01:43 30.91349 -77.70585 31232 ft 446 kts 347°
2026-04-23 01:44 30.97515 -77.71570 31242 ft 447 kts 348°
2026-04-23 01:44 31.03668 -77.72555 31250 ft 450 kts 348°
2026-04-23 01:45 31.09943 -77.73564 31241 ft 460 kts 348°
2026-04-23 01:45 31.16304 -77.74586 31231 ft 462 kts 348°
2026-04-23 01:46 31.22672 -77.75607 31233 ft 459 kts 348°
2026-04-23 01:46 31.28999 -77.76623 31227 ft 459 kts 348°
2026-04-23 01:47 31.35291 -77.77637 31225 ft 459 kts 348°
2026-04-23 01:47 31.41626 -77.78659 31223 ft 460 kts 348°
2026-04-23 01:48 31.47969 -77.79684 31227 ft 459 kts 348°
2026-04-23 01:48 31.54301 -77.80709 31230 ft 460 kts 348°
2026-04-23 01:49 31.60636 -77.81735 31221 ft 459 kts 348°
2026-04-23 01:49 31.66984 -77.82765 31220 ft 459 kts 348°
2026-04-23 01:50 31.73273 -77.83787 31219 ft 460 kts 348°
2026-04-23 01:50 31.79660 -77.84827 31224 ft 460 kts 348°
2026-04-23 01:51 31.85971 -77.85855 31218 ft 460 kts 348°
2026-04-23 01:51 31.92343 -77.86712 31226 ft 462 kts 353°
2026-04-23 01:52 31.98839 -77.87046 31222 ft 471 kts 354°
2026-04-23 01:52 32.05434 -77.87336 31233 ft 478 kts 354°
2026-04-23 01:53 32.12112 -77.87698 31220 ft 483 kts 354°
2026-04-23 01:53 32.18818 -77.88096 31222 ft 487 kts 354°
2026-04-23 01:54 32.25621 -77.88502 31218 ft 491 kts 354°
2026-04-23 01:54 32.32458 -77.88906 31232 ft 492 kts 354°
2026-04-23 01:55 32.39312 -77.89309 31214 ft 494 kts 354°
2026-04-23 01:55 32.46185 -77.89711 31208 ft 495 kts 354°
2026-04-23 01:56 32.53077 -77.90112 31207 ft 496 kts 354°
2026-04-23 01:56 32.59970 -77.90518 31214 ft 495 kts 355°
2026-04-23 01:57 32.66840 -77.90929 31205 ft 494 kts 355°
2026-04-23 01:57 32.72542 -77.91265 31198 ft 493 kts 355°
2026-04-23 01:58 32.80502 -77.91733 31197 ft 491 kts 355°
2026-04-23 01:58 32.87319 -77.92136 31194 ft 491 kts 355°
2026-04-23 01:59 32.93041 -77.92476 31195 ft 491 kts 355°
2026-04-23 01:59 32.99823 -77.92878 31198 ft 491 kts 355°
2026-04-23 02:00 33.06651 -77.93284 31199 ft 491 kts 355°
2026-04-23 02:00 33.13482 -77.93694 31202 ft 491 kts 355°
2026-04-23 02:01 33.20293 -77.94105 31188 ft 490 kts 355°
2026-04-23 02:01 33.27092 -77.94510 31186 ft 489 kts 355°
2026-04-23 02:02 33.33895 -77.94915 31188 ft 488 kts 355°
2026-04-23 02:02 33.40680 -77.95322 31191 ft 487 kts 356°
2026-04-23 02:03 33.47451 -77.95730 31162 ft 486 kts 355°
2026-04-23 02:03 33.54190 -77.96143 31166 ft 485 kts 356°
2026-04-23 02:04 33.60923 -77.96542 31169 ft 484 kts 356°
2026-04-23 02:04 33.67605 -77.96944 31172 ft 483 kts 356°
2026-04-23 02:05 33.74314 -77.97350 31154 ft 482 kts 356°
2026-04-23 02:05 33.81012 -77.97755 31173 ft 482 kts 356°
2026-04-23 02:06 33.87707 -77.98158 31157 ft 478 kts 357°
2026-04-23 02:06 33.94244 -77.98137 31160 ft 461 kts
2026-04-23 02:07 34.00681 -77.97791 31181 ft 466 kts
2026-04-23 02:07 34.07203 -77.97461 31177 ft 471 kts
2026-04-23 02:08 34.13765 -77.97181 31137 ft 468 kts
2026-04-23 02:08 34.20149 -77.96736 31144 ft 452 kts
2026-04-23 02:09 34.26409 -77.96226 31166 ft 453 kts
2026-04-23 02:09 34.32762 -77.95732 31174 ft 460 kts
2026-04-23 02:10 34.39200 -77.95259 31152 ft 466 kts
2026-04-23 02:10 34.45697 -77.94787 31134 ft 470 kts
2026-04-23 02:11 34.52199 -77.94312 31133 ft 471 kts
2026-04-23 02:11 34.58728 -77.93833 31142 ft 470 kts
2026-04-23 02:12 34.65247 -77.93353 31158 ft 470 kts
2026-04-23 02:12 34.71810 -77.92870 31145 ft 473 kts
2026-04-23 02:13 34.78396 -77.92386 31141 ft 473 kts
2026-04-23 02:13 34.84972 -77.91901 31132 ft 473 kts
2026-04-23 02:14 34.91511 -77.91417 31146 ft 473 kts
2026-04-23 02:14 34.98094 -77.90930 31141 ft 475 kts
2026-04-23 02:15 35.07998 -77.90196 31136 ft 475 kts
2026-04-23 02:16 35.14597 -77.89706 31129 ft 475 kts
2026-04-23 02:16 35.21188 -77.89215 31145 ft 474 kts
2026-04-23 02:17 35.27746 -77.88726 31141 ft 474 kts
2026-04-23 02:17 35.34320 -77.88235 31149 ft 473 kts
2026-04-23 02:18 35.40904 -77.87743 31132 ft 474 kts
2026-04-23 02:18 35.47489 -77.87250 31127 ft 473 kts
2026-04-23 02:19 35.54062 -77.86757 31132 ft 474 kts
2026-04-23 02:19 35.60650 -77.86261 31123 ft 474 kts
2026-04-23 02:20 35.67240 -77.85762 31115 ft 476 kts
2026-04-23 02:20 35.73865 -77.85263 31114 ft 478 kts
2026-04-23 02:21 35.80513 -77.84763 31111 ft 479 kts
2026-04-23 02:21 35.87177 -77.84260 31106 ft 479 kts
2026-04-23 02:22 35.93832 -77.83755 31110 ft 479 kts
2026-04-23 02:22 36.00472 -77.83250 31102 ft 477 kts
2026-04-23 02:23 36.07093 -77.82747 31102 ft 476 kts
2026-04-23 02:23 36.13707 -77.82243 31105 ft 475 kts
2026-04-23 02:24 36.20276 -77.81741 31096 ft 475 kts
2026-04-23 02:24 36.26867 -77.81238 31104 ft 475 kts
2026-04-23 02:25 36.33461 -77.80734 31098 ft 475 kts
2026-04-23 02:25 36.40060 -77.80228 31105 ft 475 kts
2026-04-23 02:26 36.46669 -77.79720 31098 ft 475 kts
2026-04-23 02:26 36.53267 -77.79212 31089 ft 475 kts
2026-04-23 02:27 36.59874 -77.78701 31096 ft 475 kts
2026-04-23 02:27 36.66468 -77.78192 31112 ft 474 kts
2026-04-23 02:28 36.73044 -77.77679 31085 ft 470 kts
2026-04-23 02:28 36.76223 -77.76800 31111 ft 472 kts 21°
2026-04-23 02:28 36.79090 -77.74750 31118 ft 478 kts 31°
2026-04-23 02:29 36.84468 -77.69942 31094 ft 466 kts 30°
2026-04-23 02:29 36.90003 -77.66034 31093 ft 460 kts 22°
2026-04-23 02:30 36.95835 -77.62629 31080 ft 465 kts 21°
2026-04-23 02:30 37.01706 -77.59102 31098 ft 471 kts 22°
2026-04-23 02:31 37.07572 -77.55385 31098 ft 475 kts 23°
2026-04-23 02:31 37.13467 -77.51560 31089 ft 478 kts 24°
2026-04-23 02:32 37.19379 -77.47717 31089 ft 479 kts 24°
2026-04-23 02:32 37.25315 -77.43871 31084 ft 481 kts 24°
2026-04-23 02:33 37.31262 -77.40020 31079 ft 480 kts 23°
2026-04-23 02:33 37.37201 -77.36168 31071 ft 480 kts 23°
2026-04-23 02:34 37.43103 -77.32333 31057 ft 479 kts 23°
2026-04-23 02:34 37.49012 -77.28486 31054 ft 478 kts 23°
2026-04-23 02:35 37.54916 -77.24634 31061 ft 478 kts 23°
2026-04-23 02:35 37.60808 -77.20783 31058 ft 477 kts 23°
2026-04-23 02:36 37.66693 -77.16931 31052 ft 476 kts 23°
2026-04-23 02:36 37.72563 -77.13081 31049 ft 475 kts 23°
2026-04-23 02:37 37.78442 -77.09219 31048 ft 475 kts 23°
2026-04-23 02:37 37.84320 -77.05351 31053 ft 476 kts 23°
2026-04-23 02:38 37.90161 -77.01500 31057 ft 476 kts 23°
2026-04-23 02:38 37.96039 -76.97616 31065 ft 476 kts 23°
2026-04-23 02:39 38.01907 -76.93731 31033 ft 476 kts 23°
2026-04-23 02:39 38.07768 -76.89845 31032 ft 475 kts 23°
2026-04-23 02:40 38.13623 -76.85958 31032 ft 474 kts 23°
2026-04-23 02:40 38.19470 -76.82067 31019 ft 473 kts 23°
2026-04-23 02:41 38.25254 -76.78208 31018 ft 471 kts 23°
2026-04-23 02:41 38.31091 -76.74310 31013 ft 470 kts 23°
2026-04-23 02:42 38.36860 -76.70452 31025 ft 470 kts 23°
2026-04-23 02:42 38.42649 -76.66572 31022 ft 471 kts 23°
2026-04-23 02:43 38.48454 -76.62675 31020 ft 472 kts 23°
2026-04-23 02:43 38.54270 -76.58763 31022 ft 472 kts 23°
2026-04-23 02:44 38.59103 -76.55505 31029 ft 473 kts 23°
2026-04-23 02:44 38.64924 -76.51576 31020 ft 474 kts 23°
2026-04-23 02:45 38.70759 -76.47628 31029 ft 474 kts 23°
2026-04-23 02:45 38.76589 -76.43678 31009 ft 473 kts 23°
2026-04-23 02:45 38.79481 -76.41714 30770 ft 468 kts 23°
2026-04-23 02:46 38.82345 -76.39766 30145 ft 464 kts 23°
2026-04-23 02:46 38.85190 -76.37831 29400 ft 461 kts 23°
2026-04-23 02:46 38.88017 -76.35908 28656 ft 459 kts 23°
2026-04-23 02:46 38.90837 -76.33990 27947 ft 457 kts 23°
2026-04-23 02:47 38.93637 -76.32084 27340 ft 454 kts 24°
2026-04-23 02:47 38.96434 -76.30178 27144 ft 458 kts 24°
2026-04-23 02:47 38.99254 -76.28256 27026 ft 457 kts 24°
2026-04-23 02:47 39.02037 -76.26351 27028 ft 452 kts 24°
2026-04-23 02:48 39.04814 -76.24449 27021 ft 452 kts 24°
2026-04-23 02:48 39.07598 -76.22542 27027 ft 453 kts 24°
2026-04-23 02:48 39.10374 -76.20641 27028 ft 453 kts 24°
2026-04-23 02:48 39.13131 -76.18751 27028 ft 454 kts 24°
2026-04-23 02:49 39.15952 -76.16814 27029 ft 455 kts 24°
2026-04-23 02:49 39.18706 -76.14921 27030 ft 455 kts 24°
2026-04-23 02:49 39.21502 -76.12997 27051 ft 455 kts 23°
2026-04-23 02:49 39.24290 -76.11077 27032 ft 454 kts 23°
2026-04-23 02:50 39.27062 -76.09108 27023 ft 455 kts 26°
2026-04-23 02:50 39.29700 -76.06874 27007 ft 450 kts 32°
2026-04-23 02:50 39.32098 -76.04272 26975 ft 450 kts 38°
2026-04-23 02:50 39.34328 -76.01411 26548 ft 454 kts 41°
2026-04-23 02:51 39.36507 -75.98440 25795 ft 456 kts 41°
2026-04-23 02:51 39.38710 -75.95485 25038 ft 456 kts 41°
2026-04-23 02:51 39.40964 -75.92597 24346 ft 455 kts 39°
2026-04-23 02:51 39.43257 -75.89788 23737 ft 453 kts 39°
2026-04-23 02:52 39.45574 -75.87035 23118 ft 450 kts 38°
2026-04-23 02:52 39.47856 -75.84359 22583 ft 445 kts 38°
2026-04-23 02:52 39.50165 -75.81658 22082 ft 439 kts 38°
2026-04-23 02:52 39.52413 -75.79018 21559 ft 435 kts 38°
2026-04-23 02:53 39.54615 -75.76418 21042 ft 432 kts 38°
2026-04-23 02:53 39.56827 -75.73794 20529 ft 428 kts 38°
2026-04-23 02:53 39.58982 -75.71227 20439 ft 414 kts 38°
2026-04-23 02:53 39.61070 -75.68735 20354 ft 401 kts 38°
2026-04-23 02:54 39.63093 -75.66323 20271 ft 388 kts 38°
2026-04-23 02:54 39.65050 -75.63993 20191 ft 376 kts 37°
2026-04-23 02:54 39.66948 -75.61731 20097 ft 365 kts 37°
2026-04-23 02:54 39.68787 -75.59534 20023 ft 353 kts 37°
2026-04-23 02:55 39.70568 -75.57392 19954 ft 342 kts 37°
2026-04-23 02:55 39.72283 -75.55324 19831 ft 333 kts 37°
2026-04-23 02:55 39.73959 -75.53301 19635 ft 325 kts 37°
2026-04-23 02:55 39.75606 -75.51318 19299 ft 322 kts 37°
2026-04-23 02:56 39.77252 -75.49337 18904 ft 321 kts 37°
2026-04-23 02:56 39.78883 -75.47373 18538 ft 319 kts 37°
2026-04-23 02:56 39.80507 -75.45415 18163 ft 317 kts 37°
2026-04-23 02:56 39.82118 -75.43470 17781 ft 315 kts 37°
2026-04-23 02:57 39.83719 -75.41534 17361 ft 314 kts 36°
2026-04-23 02:57 39.85319 -75.39599 16921 ft 313 kts 36°
2026-04-23 02:57 39.86908 -75.37677 16522 ft 311 kts 36°
2026-04-23 02:57 39.88490 -75.35760 16133 ft 309 kts 36°
2026-04-23 02:58 39.90042 -75.33879 15721 ft 308 kts 36°
2026-04-23 02:58 39.91627 -75.31957 15312 ft 307 kts 36°
2026-04-23 02:58 39.93183 -75.30069 14910 ft 305 kts 36°
2026-04-23 02:58 39.94732 -75.28187 14518 ft 303 kts 36°
2026-04-23 02:59 39.96272 -75.26316 14133 ft 302 kts 36°
2026-04-23 02:59 39.97804 -75.24452 13780 ft 300 kts 36°
2026-04-23 02:59 39.99332 -75.22591 13352 ft 299 kts 36°
2026-04-23 02:59 40.00847 -75.20747 12924 ft 298 kts 36°
2026-04-23 03:00 40.02365 -75.18900 12502 ft 297 kts 36°
2026-04-23 03:00 40.03874 -75.17060 12097 ft 296 kts 37°
2026-04-23 03:00 40.05357 -75.15252 11680 ft 296 kts 37°
2026-04-23 03:00 40.06880 -75.13393 11262 ft 296 kts 37°
2026-04-23 03:01 40.08360 -75.11585 11013 ft 295 kts 37°
2026-04-23 03:01 40.09861 -75.09752 11010 ft 296 kts 37°
2026-04-23 03:01 40.11370 -75.07906 11002 ft 296 kts 37°
2026-04-23 03:01 40.12866 -75.06072 10984 ft 295 kts 37°
2026-04-23 03:02 40.14339 -75.04264 10972 ft 284 kts 37°
2026-04-23 03:02 40.15748 -75.02529 10919 ft 271 kts 37°
2026-04-23 03:02 40.17089 -75.00878 10777 ft 259 kts 36°
2026-04-23 03:02 40.18381 -74.99291 10539 ft 251 kts 36°
2026-04-23 03:03 40.19639 -74.97751 10221 ft 246 kts 36°
2026-04-23 03:03 40.20893 -74.96218 9826 ft 246 kts 36°
2026-04-23 03:03 40.22139 -74.94692 9404 ft 244 kts 36°
2026-04-23 03:03 40.23362 -74.93187 9110 ft 238 kts 36°
2026-04-23 03:04 40.24568 -74.91704 8591 ft 239 kts 36°
2026-04-23 03:04 40.25777 -74.90191 8155 ft 239 kts 39°
2026-04-23 03:04 40.26933 -74.88594 8024 ft 245 kts 40°
2026-04-23 03:04 40.28085 -74.86964 7977 ft 243 kts 40°
2026-04-23 03:05 40.29209 -74.85366 7973 ft 239 kts 40°
2026-04-23 03:05 40.30352 -74.83746 7979 ft 240 kts 40°
2026-04-23 03:05 40.31475 -74.82165 7999 ft 241 kts 40°
2026-04-23 03:05 40.32501 -74.80444 7965 ft 239 kts 56°
2026-04-23 03:06 40.33149 -74.78501 7939 ft 227 kts 62°
2026-04-23 03:06 40.33729 -74.76631 7689 ft 217 kts 60°
2026-04-23 03:06 40.34350 -74.74850 7292 ft 213 kts 58°
2026-04-23 03:06 40.34983 -74.73113 6918 ft 210 kts 58°
2026-04-23 03:07 40.35615 -74.71396 6490 ft 208 kts 57°
2026-04-23 03:07 40.36241 -74.69700 6066 ft 206 kts 57°
2026-04-23 03:07 40.36868 -74.68000 5601 ft 208 kts 57°
2026-04-23 03:07 40.37500 -74.66287 5119 ft 209 kts 58°
2026-04-23 03:08 40.38133 -74.64567 4676 ft 209 kts 58°
2026-04-23 03:08 40.38766 -74.62847 4239 ft 209 kts 59°
2026-04-23 03:08 40.39401 -74.61127 3814 ft 210 kts 60°
2026-04-23 03:08 40.40036 -74.59396 3403 ft 210 kts 62°
2026-04-23 03:09 40.40668 -74.57673 2991 ft 208 kts 63°
2026-04-23 03:09 40.41273 -74.56018 2867 ft 194 kts 63°
2026-04-23 03:09 40.41877 -74.54364 2871 ft 205 kts 63°
2026-04-23 03:09 40.42493 -74.52673 2821 ft 205 kts 63°
2026-04-23 03:10 40.43100 -74.51004 2780 ft 203 kts 63°
2026-04-23 03:10 40.43705 -74.49342 2781 ft 200 kts 63°
2026-04-23 03:10 40.44308 -74.47684 2770 ft 201 kts 63°
2026-04-23 03:10 40.44907 -74.46035 2790 ft 204 kts 63°
2026-04-23 03:11 40.45519 -74.44352 2787 ft 203 kts 63°
2026-04-23 03:11 40.46125 -74.42683 2787 ft 202 kts 63°
2026-04-23 03:11 40.46729 -74.41022 2787 ft 201 kts 63°
2026-04-23 03:11 40.47332 -74.39362 2787 ft 201 kts 63°
2026-04-23 03:12 40.47935 -74.37701 2790 ft 201 kts 63°
2026-04-23 03:12 40.48530 -74.36060 2783 ft 196 kts 64°
2026-04-23 03:12 40.49099 -74.34488 2768 ft 185 kts 62°
2026-04-23 03:12 40.49640 -74.32991 2781 ft 182 kts 62°
2026-04-23 03:13 40.50191 -74.31471 2800 ft 185 kts 62°
2026-04-23 03:13 40.50745 -74.29945 2802 ft 186 kts 62°
2026-04-23 03:13 40.51298 -74.28421 2788 ft 181 kts 60°
2026-04-23 03:13 40.52108 -74.27291 2771 ft 171 kts 14°
2026-04-23 03:14 40.53288 -74.26860 2803 ft 178 kts 17°
2026-04-23 03:14 40.54369 -74.26051 2597 ft 179 kts 27°
2026-04-23 03:14 40.55435 -74.25262 2217 ft 177 kts 24°
2026-04-23 03:14 40.56539 -74.24548 1843 ft 173 kts 24°
2026-04-23 03:15 40.57611 -74.23867 1723 ft 176 kts 24°
2026-04-23 03:15 40.58722 -74.23163 1694 ft 176 kts 24°
2026-04-23 03:15 40.59775 -74.22494 1698 ft 162 kts 24°
2026-04-23 03:15 40.60802 -74.21841 1725 ft 163 kts 25°
2026-04-23 03:16 40.61783 -74.21175 1605 ft 149 kts 26°
2026-04-23 03:16 40.62667 -74.20571 1139 ft 146 kts 25°
2026-04-23 03:16 40.64614 -74.19390 966 ft 168 kts 24°
2026-04-23 03:17 40.65642 -74.18758 696 ft 157 kts 26°
2026-04-23 03:17 40.66591 -74.18157 396 ft 148 kts 25°
2026-04-23 03:17 40.67526 -74.17573 180 ft 146 kts 25°
2026-04-23 03:17 40.68378 -74.17028 29 ft 124 kts 26°
2026-04-23 03:18 40.69092 -74.16584 26 ft 82 kts 25°
2026-04-23 03:18 40.69436 -74.16368 29 ft 51 kts 26°
2026-04-23 03:18 40.69726 -74.16178 25 ft 38 kts 26°
2026-04-23 03:18 40.69904 -74.16061 27 ft 12 kts 26°
2026-04-23 03:19 40.69986 -74.16045 29 ft 6 kts 334°
2026-04-23 03:19 40.70021 -74.16120 28 ft 19 kts 296°
2026-04-23 03:19 40.70028 -74.16139 25 ft 0 kts 294°
2026-04-23 03:23 40.70028 -74.16140 24 ft 0 kts 294°
2026-04-23 03:23 40.70031 -74.16150 26 ft 2 kts 293°
2026-04-23 03:23 40.70039 -74.16175 23 ft 4 kts 289°
2026-04-23 03:23 40.70046 -74.16216 26 ft 6 kts 282°
2026-04-23 03:24 40.70052 -74.16274 24 ft 7 kts 276°
2026-04-23 03:24 40.70058 -74.16345 20 ft 8 kts 274°
2026-04-23 03:24 40.70062 -74.16420 20 ft 8 kts 273°
2026-04-23 03:24 40.70066 -74.16496 20 ft 8 kts 275°
2026-04-23 03:25 40.70072 -74.16571 20 ft 8 kts 275°
2026-04-23 03:25 40.70077 -74.16646 20 ft 8 kts 275°
2026-04-23 03:25 40.70082 -74.16721 21 ft 8 kts 274°
2026-04-23 03:25 40.70086 -74.16797 25 ft 8 kts 274°
2026-04-23 03:26 40.70089 -74.16847 23 ft 8 kts 275°
2026-04-23 03:26 40.70094 -74.16922 24 ft 8 kts 275°
2026-04-23 03:26 40.70099 -74.16998 25 ft 8 kts 276°
2026-04-23 03:26 40.70105 -74.17073 26 ft 8 kts 275°
2026-04-23 03:27 40.70110 -74.17148 26 ft 8 kts 275°
2026-04-23 03:27 40.70115 -74.17224 27 ft 8 kts 275°
2026-04-23 03:27 40.70114 -74.17298 28 ft 8 kts 256°
2026-04-23 03:27 40.70080 -74.17357 29 ft 8 kts 207°
2026-04-23 03:28 40.70020 -74.17371 28 ft 9 kts 185°
2026-04-23 03:28 40.69954 -74.17381 27 ft 10 kts 186°
2026-04-23 03:28 40.69892 -74.17400 27 ft 7 kts 224°
2026-04-23 03:28 40.69891 -74.17467 27 ft 8 kts 282°
2026-04-23 03:29 40.69898 -74.17521 27 ft 0 kts 274°
2026-04-23 03:29 40.69899 -74.17524 26 ft 0 kts 274°
2026-04-23 03:29 40.69899 -74.17529 26 ft 1 kts 275°
2026-04-23 03:29 40.69900 -74.17538 26 ft 1 kts 275°
2026-04-23 03:30 40.69901 -74.17554 26 ft 2 kts 275°
2026-04-23 03:30 40.69902 -74.17573 26 ft 2 kts 275°
2026-04-23 03:30 40.69903 -74.17593 26 ft 2 kts 275°
2026-04-23 03:30 40.69903 -74.17615 26 ft 4 kts 265°
2026-04-23 03:31 40.69881 -74.17671 29 ft 9 kts 230°
2026-04-23 03:31 40.69839 -74.17724 31 ft 1 kts 221°
2026-04-23 03:31 40.69834 -74.17729 31 ft 1 kts 222°
2026-04-23 03:31 40.69826 -74.17740 28 ft 3 kts 226°
2026-04-23 03:32 40.69813 -74.17776 27 ft 0 kts 248°
2026-04-23 03:32 40.69813 -74.17790 28 ft 3 kts 266°
2026-04-23 03:32 40.69812 -74.17804 26 ft 1 kts 270°
2026-04-23 03:32 40.69812 -74.17820 25 ft 3 kts 270°
2026-04-23 03:33 40.69812 -74.17827 25 ft 0 kts 270°